| time (UTC) | temp F | wind direction | speed knots | gust knots | rain 1hr in | rain 24hr in | rain mn in | humidity % | barometer mb |
| 20260502210516 | 42 | 331 | 6.1 | 8.7 | 0.00 | 0.00 | 0.00 | 67 | 1014.2 |
| 20260502210025 | 42 | 321 | 6.1 | 10.4 | 0.00 | 0.00 | 0.00 | 69 | 1013.1 |
| 20260502210016 | 42 | 336 | 6.1 | 8.7 | 0.00 | 0.00 | 0.00 | 68 | 1014.3 |
| 20260502205027 | 42 | 319 | 7.8 | 11.3 | 0.00 | 0.00 | 0.00 | 65 | 1014.2 |
| 20260502204516 | 43 | 325 | 7.0 | 9.6 | 0.00 | 0.00 | 0.00 | 65 | 1014.3 |
| 20260502204510 | 43 | 322 | 7.0 | 10.4 | 0.00 | 0.00 | 0.00 | 64 | 1013.2 |
| 20260502204016 | 43 | 327 | 7.0 | 9.6 | 0.00 | 0.00 | 0.00 | 63 | 1014.2 |
| 20260502203538 | 43 | 302 | 6.1 | 9.6 | 0.00 | 0.00 | 0.00 | 65 | 1014.3 |
| 20260502203038 | 43 | 320 | 7.0 | 10.4 | 0.00 | 0.00 | 0.00 | 63 | 1014.4 |
| 20260502203014 | 43 | 317 | 7.0 | 11.3 | 0.00 | 0.00 | 0.00 | 63 | 1013.3 |
| 20260502202016 | 43 | 319 | 7.8 | 11.3 | 0.00 | 0.00 | 0.00 | 62 | 1014.4 |
| 20260502201514 | 42 | 305 | 8.7 | 12.2 | 0.00 | 0.00 | 0.00 | 62 | 1013.6 |
| 20260502201049 | 42 | 323 | 7.0 | 9.6 | 0.00 | 0.00 | 0.00 | 65 | 1014.5 |
| 20260502200038 | 42 | 339 | 7.8 | 10.4 | 0.00 | 0.00 | 0.00 | 67 | 1014.5 |
| 20260502200003 | 41 | 333 | 7.8 | 11.3 | 0.00 | 0.00 | 0.00 | 66 | 1014.2 |
| 20260502195516 | 42 | 333 | 7.8 | 9.6 | 0.00 | 0.00 | 0.00 | 65 | 1014.7 |
| 20260502195016 | 42 | 327 | 7.0 | 8.7 | 0.00 | 0.00 | 0.00 | 62 | 1014.7 |
| 20260502194516 | 43 | 325 | 6.1 | 9.6 | 0.00 | 0.00 | 0.00 | 63 | 1014.8 |
| 20260502194502 | 43 | 331 | 6.1 | 10.4 | 0.00 | 0.00 | 0.00 | 62 | 1014.5 |
| 20260502194038 | 43 | 315 | 5.2 | 9.6 | 0.00 | 0.00 | 0.00 | 62 | 1014.9 |
| 20260502193516 | 44 | 311 | 7.0 | 11.3 | 0.00 | 0.00 | 0.00 | 62 | 1014.9 |
| 20260502193016 | 43 | 314 | 7.8 | 11.3 | 0.00 | 0.00 | 0.00 | 61 | 1014.9 |
| 20260502193004 | 43 | 325 | 7.8 | 12.2 | 0.00 | 0.00 | 0.00 | 61 | 1014.3 |
| 20260502192016 | 43 | 314 | 7.8 | 11.3 | 0.00 | 0.00 | 0.00 | 60 | 1015.0 |
| 20260502191516 | 43 | 346 | 7.0 | 10.4 | 0.00 | 0.00 | 0.00 | 62 | 1015.1 |
| 20260502191505 | 43 | 320 | 7.0 | 11.3 | 0.00 | 0.00 | 0.00 | 61 | 1013.8 |
| 20260502190516 | 43 | 319 | 7.8 | 10.4 | 0.00 | 0.00 | 0.00 | 61 | 1015.1 |
| 20260502190016 | 43 | 313 | 7.8 | 11.3 | 0.00 | 0.00 | 0.00 | 61 | 1015.2 |
| 20260502190003 | 43 | 328 | 7.8 | 12.2 | 0.00 | 0.00 | 0.00 | 61 | 1014.0 |
| 20260502185516 | 43 | 309 | 7.0 | 11.3 | 0.00 | 0.00 | 0.00 | 63 | 1015.3 |
| 20260502184516 | 42 | 342 | 7.8 | 10.4 | 0.00 | 0.00 | 0.00 | 61 | 1015.4 |
| 20260502184509 | 42 | 311 | 7.8 | 11.3 | 0.00 | 0.00 | 0.00 | 61 | 1014.1 |
| 20260502184017 | 43 | 327 | 7.8 | 11.3 | 0.00 | 0.00 | 0.00 | 61 | 1015.4 |
| 20260502183016 | 42 | 338 | 8.7 | 13.0 | 0.00 | 0.00 | 0.00 | 58 | 1015.5 |
| 20260502183004 | 42 | 312 | 8.7 | 13.9 | 0.00 | 0.00 | 0.00 | 58 | 1014.3 |
| 20260502182516 | 42 | 322 | 8.7 | 12.2 | 0.00 | 0.00 | 0.00 | 61 | 1015.5 |
| 20260502182027 | 42 | 315 | 9.6 | 12.2 | 0.00 | 0.00 | 0.00 | 59 | 1015.5 |
| 20260502181528 | 42 | 335 | 7.0 | 12.2 | 0.00 | 0.00 | 0.00 | 61 | 1015.5 |
| 20260502181503 | 42 | 315 | 7.0 | 13.0 | 0.00 | 0.00 | 0.00 | 60 | 1014.3 |
| 20260502181038 | 42 | 318 | 7.0 | 12.2 | 0.00 | 0.00 | 0.00 | 62 | 1015.6 |
| 20260502180516 | 41 | 315 | 7.0 | 10.4 | 0.00 | 0.00 | 0.00 | 65 | 1015.6 |
| 20260502164038 | 38 | 324 | 6.1 | 9.6 | 0.00 | 0.00 | 0.00 | 81 | 1016.2 |
| 20260502163527 | 38 | 324 | 7.8 | 9.6 | 0.00 | 0.00 | 0.00 | 80 | 1016.2 |
| 20260502163016 | 38 | 331 | 7.0 | 10.4 | 0.00 | 0.00 | 0.00 | 81 | 1016.3 |
| 20260502163003 | 38 | 329 | 7.8 | 11.3 | 0.00 | 0.00 | 0.00 | 81 | 1015.8 |
| 20260502162516 | 38 | 333 | 7.8 | 11.3 | 0.00 | 0.00 | 0.00 | 82 | 1016.3 |
| 20260502162016 | 38 | 326 | 7.8 | 11.3 | 0.00 | 0.00 | 0.00 | 82 | 1016.4 |
| 20260502161539 | 38 | 315 | 8.7 | 11.3 | 0.00 | 0.00 | 0.00 | 82 | 1016.4 |
| 20260502161503 | 38 | 338 | 9.6 | 12.2 | 0.00 | 0.00 | 0.00 | 82 | 1016.4 |
| 20260502161016 | 38 | 322 | 8.7 | 11.3 | 0.00 | 0.00 | 0.00 | 81 | 1016.4 |
| 20260502160516 | 38 | 297 | 7.0 | 11.3 | 0.00 | 0.00 | 0.00 | 83 | 1016.4 |
| 20260502152039 | 39 | 327 | 7.8 | 12.2 | 0.00 | 0.00 | 0.00 | 80 | 1016.5 |
| 20260502151516 | 38 | 327 | 7.0 | 11.3 | 0.00 | 0.00 | 0.00 | 82 | 1016.5 |
| 20260502151503 | 38 | 330 | 7.0 | 12.2 | 0.00 | 0.00 | 0.00 | 81 | 1015.2 |
| 20260502151038 | 38 | 317 | 8.7 | 11.3 | 0.00 | 0.00 | 0.00 | 81 | 1016.4 |
| 20260502130516 | 37 | 248 | 7.8 | 11.3 | 0.00 | 0.00 | 0.00 | 72 | 1017.1 |
| 20260502123016 | 36 | 259 | 8.7 | 12.2 | 0.00 | 0.00 | 0.00 | 73 | 1017.3 |
| 20260502123012 | 36 | 265 | 8.7 | 13.0 | 0.00 | 0.00 | 0.00 | 73 | 1016.5 |
| 20260502122539 | 36 | 271 | 9.6 | 13.0 | 0.00 | 0.00 | 0.00 | 74 | 1017.3 |
| 20260502122016 | 36 | 275 | 9.6 | 13.9 | 0.00 | 0.00 | 0.00 | 74 | 1017.3 |
| 20260502121532 | 35 | 271 | 8.7 | 14.8 | 0.00 | 0.00 | 0.00 | 74 | 1016.4 |
| 20260502121517 | 35 | 263 | 8.7 | 13.9 | 0.00 | 0.00 | 0.00 | 74 | 1017.3 |
| 20260502121039 | 35 | 267 | 8.7 | 13.9 | 0.00 | 0.00 | 0.00 | 74 | 1017.2 |
| 20260502120516 | 35 | 245 | 6.1 | 13.9 | 0.00 | 0.00 | 0.00 | 75 | 1017.2 |
| 20260502115528 | 34 | 254 | 9.6 | 13.0 | 0.00 | 0.00 | 0.00 | 75 | 1017.3 |
| 20260502115017 | 34 | 244 | 7.8 | 13.0 | 0.00 | 0.00 | 0.00 | 75 | 1017.2 |
| 20260502114511 | 34 | 257 | 8.7 | 14.8 | 0.00 | 0.00 | 0.00 | 75 | 1016.4 |
| 20260502114039 | 34 | 263 | 7.0 | 13.9 | 0.00 | 0.00 | 0.00 | 76 | 1017.2 |
| 20260502113017 | 33 | 257 | 7.0 | 10.4 | 0.00 | 0.00 | 0.00 | 77 | 1017.0 |
| 20260502113008 | 33 | 265 | 7.8 | 11.3 | 0.00 | 0.00 | 0.00 | 77 | 1016.4 |
| 20260502112017 | 32 | 258 | 6.1 | 10.4 | 0.00 | 0.00 | 0.00 | 78 | 1016.9 |
| 20260502111517 | 32 | 253 | 6.1 | 8.7 | 0.00 | 0.00 | 0.00 | 78 | 1016.9 |
| 20260502111512 | 32 | 257 | 5.2 | 9.6 | 0.00 | 0.00 | 0.00 | 78 | 1016.4 |
| 20260502111017 | 32 | 242 | 5.2 | 7.8 | 0.00 | 0.00 | 0.00 | 78 | 1016.9 |
| 20260502110550 | 32 | 265 | 3.5 | 7.8 | 0.00 | 0.00 | 0.00 | 79 | 1016.9 |
| 20260502110017 | 32 | 242 | 5.2 | 7.8 | 0.00 | 0.00 | 0.00 | 79 | 1016.9 |
| 20260502110003 | 32 | 240 | 5.2 | 8.7 | 0.00 | 0.00 | 0.00 | 78 | 1016.3 |
| 20260502105017 | 32 | 236 | 4.3 | 7.8 | 0.00 | 0.00 | 0.00 | 78 | 1016.8 |
| 20260502104516 | 32 | 227 | 5.2 | 7.8 | 0.00 | 0.00 | 0.00 | 78 | 1016.9 |
| 20260502104504 | 32 | 267 | 5.2 | 8.7 | 0.00 | 0.00 | 0.00 | 78 | 1016.1 |
| 20260502104050 | 32 | 238 | 5.2 | 8.7 | 0.00 | 0.00 | 0.00 | 78 | 1016.9 |
| 20260502103539 | 32 | 229 | 5.2 | 8.7 | 0.00 | 0.00 | 0.00 | 78 | 1017.0 |
| 20260502103017 | 32 | 249 | 5.2 | 9.6 | 0.00 | 0.00 | 0.00 | 78 | 1017.0 |
| 20260502103007 | 32 | 249 | 5.2 | 10.4 | 0.00 | 0.00 | 0.00 | 77 | 1015.5 |
| 20260502102527 | 32 | 240 | 5.2 | 9.6 | 0.00 | 0.00 | 0.00 | 78 | 1016.9 |
| 20260502102017 | 32 | 240 | 5.2 | 8.7 | 0.00 | 0.00 | 0.00 | 78 | 1016.9 |
| 20260502101517 | 31 | 248 | 4.3 | 7.8 | 0.00 | 0.00 | 0.00 | 78 | 1016.8 |
| 20260502101512 | 31 | 261 | 4.3 | 8.7 | 0.00 | 0.00 | 0.00 | 77 | 1015.5 |
| 20260502101017 | 31 | 245 | 5.2 | 10.4 | 0.00 | 0.00 | 0.00 | 78 | 1017.0 |
| 20260502100517 | 31 | 238 | 5.2 | 10.4 | 0.00 | 0.00 | 0.00 | 78 | 1016.9 |
| 20260502091509 | 32 | 258 | 4.3 | 8.7 | 0.00 | 0.00 | 0.00 | 77 | 1016.1 |
| 20260502091050 | 32 | 244 | 5.2 | 7.8 | 0.00 | 0.00 | 0.00 | 78 | 1016.8 |
| 20260502090528 | 31 | 246 | 5.2 | 7.8 | 0.00 | 0.00 | 0.00 | 78 | 1016.8 |
| 20260502071503 | 33 | 241 | 3.5 | 8.7 | 0.00 | 0.01 | 0.00 | 76 | 1015.8 |
| 20260502071017 | 33 | 229 | 4.3 | 6.1 | 0.00 | 0.01 | 0.00 | 77 | 1016.7 |
| 20260502070539 | 33 | 240 | 4.3 | 6.1 | 0.00 | 0.01 | 0.00 | 77 | 1016.7 |
| 20260502070017 | 33 | 242 | 2.6 | 6.1 | 0.00 | 0.01 | 0.00 | 76 | 1015.3 |
| 20260502065517 | 33 | 240 | 2.6 | 5.2 | 0.00 | 0.01 | 0.00 | 76 | 1016.8 |
| 20260502064550 | 34 | 257 | 3.5 | 6.1 | 0.00 | 0.01 | 0.00 | 76 | 1016.9 |
| 20260502064510 | 34 | 263 | 2.6 | 7.8 | 0.00 | 0.01 | 0.00 | 75 | 1015.5 |
| 20260502063528 | 34 | 259 | 3.5 | 7.0 | 0.00 | 0.01 | 0.00 | 75 | 1016.9 |
| 20260502063028 | 34 | 252 | 4.3 | 7.0 | 0.00 | 0.01 | 0.00 | 75 | 1016.9 |
| 20260502063024 | 34 | 256 | 4.3 | 8.7 | 0.00 | 0.01 | 0.00 | 74 | 1015.8 |
| 20260502062517 | 34 | 228 | 5.2 | 7.8 | 0.00 | 0.01 | 0.00 | 74 | 1017.0 |
| 20260502061550 | 35 | 257 | 3.5 | 7.0 | 0.00 | 0.01 | 0.00 | 75 | 1016.9 |
| 20260502061514 | 35 | 259 | 3.5 | 7.8 | 0.00 | 0.01 | 0.00 | 74 | 1016.1 |
| 20260502061039 | 35 | 275 | 4.3 | 8.7 | 0.00 | 0.01 | 0.00 | 74 | 1017.0 |
| 20260502060517 | 35 | 265 | 6.1 | 8.7 | 0.00 | 0.01 | 0.00 | 74 | 1016.9 |
| 20260502060050 | 35 | 243 | 5.2 | 8.7 | 0.00 | 0.01 | 0.00 | 73 | 1016.9 |
| 20260502060004 | 35 | 251 | 5.2 | 11.3 | 0.00 | 0.01 | 0.00 | 73 | 1016.4 |
| 20260502055517 | 35 | 262 | 6.1 | 10.4 | 0.00 | 0.01 | 0.00 | 73 | 1017.0 |
| 20260502054550 | 35 | 312 | 8.7 | 13.9 | 0.00 | 0.01 | 0.00 | 75 | 1017.0 |
| 20260502054506 | 35 | 304 | 8.7 | 13.0 | 0.00 | 0.01 | 0.00 | 74 | 1016.3 |
| 20260502054017 | 36 | 275 | 6.1 | 13.9 | 0.00 | 0.01 | 0.00 | 75 | 1017.0 |
| 20260502053539 | 36 | 271 | 9.6 | 14.8 | 0.00 | 0.01 | 0.00 | 75 | 1016.9 |
| 20260502053017 | 36 | 299 | 10.4 | 14.8 | 0.00 | 0.01 | 0.00 | 75 | 1016.9 |
| 20260502053011 | 36 | 300 | 10.4 | 15.6 | 0.00 | 0.01 | 0.00 | 74 | 1016.2 |
| 20260502052517 | 36 | 285 | 9.6 | 13.9 | 0.00 | 0.01 | 0.00 | 76 | 1016.9 |
| 20260502052039 | 36 | 283 | 10.4 | 14.8 | 0.00 | 0.01 | 0.00 | 74 | 1017.0 |
| 20260502051540 | 36 | 302 | 11.3 | 14.8 | 0.00 | 0.01 | 0.00 | 74 | 1016.9 |
| 20260502051515 | 36 | 296 | 12.2 | 15.6 | 0.00 | 0.01 | 0.00 | 74 | 1016.0 |
| 20260502050539 | 36 | 307 | 9.6 | 13.9 | 0.00 | 0.01 | 0.00 | 77 | 1016.9 |
| 20260502050032 | 36 | 306 | 9.6 | 13.0 | 0.00 | 0.01 | 0.00 | 76 | 1016.9 |
| 20260502050016 | 36 | 294 | 9.6 | 14.8 | 0.00 | 0.01 | 0.00 | 75 | 1015.3 |
| 20260502045517 | 36 | 306 | 7.8 | 13.9 | 0.00 | 0.01 | 0.00 | 77 | 1016.9 |
| 20260502045017 | 36 | 297 | 9.6 | 13.9 | 0.00 | 0.01 | 0.00 | 76 | 1016.9 |
| 20260502044528 | 36 | 286 | 8.7 | 13.9 | 0.00 | 0.01 | 0.00 | 76 | 1016.9 |
| 20260502044506 | 36 | 286 | 9.6 | 14.8 | 0.00 | 0.01 | 0.00 | 75 | 1015.5 |
| 20260502044050 | 36 | 300 | 10.4 | 13.9 | 0.00 | 0.01 | 0.00 | 75 | 1016.9 |
| 20260502043517 | 36 | 286 | 9.6 | 13.0 | 0.00 | 0.01 | 0.00 | 75 | 1016.9 |
| 20260502043017 | 36 | 330 | 9.6 | 13.9 | 0.00 | 0.01 | 0.00 | 74 | 1016.9 |
| 20260502043008 | 36 | 291 | 10.4 | 14.8 | 0.00 | 0.01 | 0.00 | 74 | 1015.6 |
| 20260502042517 | 36 | 283 | 9.6 | 13.9 | 0.00 | 0.01 | 0.00 | 76 | 1016.9 |
| 20260502042051 | 36 | 275 | 10.4 | 13.9 | 0.00 | 0.01 | 0.00 | 75 | 1016.9 |
| 20260502041539 | 36 | 297 | 7.8 | 12.2 | 0.00 | 0.01 | 0.00 | 76 | 1016.9 |
| 20260502041516 | 36 | 288 | 8.7 | 13.0 | 0.00 | 0.01 | 0.00 | 75 | 1016.0 |
| 20260502041017 | 36 | 296 | 9.6 | 12.2 | 0.00 | 0.01 | 0.00 | 75 | 1016.9 |
| 20260502040517 | 36 | 294 | 9.6 | 12.2 | 0.00 | 0.01 | 0.00 | 75 | 1016.9 |
| 20260502040019 | 36 | 285 | 8.7 | 13.9 | 0.00 | 0.01 | 0.00 | 75 | 1016.4 |
| 20260502040017 | 36 | 276 | 7.8 | 12.2 | 0.00 | 0.01 | 0.00 | 76 | 1016.9 |
| 20260502035517 | 36 | 287 | 9.6 | 13.0 | 0.00 | 0.01 | 0.01 | 75 | 1016.9 |
| 20260502034520 | 36 | 312 | 7.8 | 13.9 | 0.00 | 0.01 | 0.01 | 76 | 1016.4 |
| 20260502034517 | 36 | 300 | 7.8 | 13.0 | 0.00 | 0.01 | 0.01 | 76 | 1016.9 |
| 20260502034039 | 36 | 305 | 8.7 | 13.9 | 0.00 | 0.01 | 0.01 | 76 | 1016.9 |
| 20260502033517 | 36 | 307 | 10.4 | 15.6 | 0.00 | 0.01 | 0.01 | 75 | 1017.0 |
| 20260502033039 | 36 | 310 | 10.4 | 15.6 | 0.00 | 0.01 | 0.01 | 75 | 1017.0 |
| 20260502033004 | 36 | 317 | 10.4 | 16.5 | 0.00 | 0.01 | 0.01 | 75 | 1016.3 |
| 20260502032528 | 36 | 332 | 9.6 | 14.8 | 0.00 | 0.01 | 0.01 | 76 | 1016.9 |
| 20260502032017 | 36 | 303 | 10.4 | 13.9 | 0.00 | 0.01 | 0.01 | 75 | 1017.0 |
| 20260502031517 | 36 | 304 | 8.7 | 12.2 | 0.00 | 0.01 | 0.01 | 77 | 1016.9 |
| 20260502031510 | 36 | 315 | 8.7 | 13.0 | 0.00 | 0.01 | 0.01 | 76 | 1016.1 |
| 20260502031018 | 36 | 309 | 8.7 | 12.2 | 0.00 | 0.01 | 0.01 | 77 | 1016.9 |
| 20260502030517 | 36 | 294 | 8.7 | 11.3 | 0.00 | 0.01 | 0.01 | 78 | 1016.9 |
| 20260502030050 | 36 | 303 | 7.8 | 12.2 | 0.00 | 0.01 | 0.01 | 78 | 1017.0 |
| 20260502030014 | 36 | 309 | 7.8 | 13.0 | 0.00 | 0.01 | 0.01 | 78 | 1015.7 |
| 20260502025528 | 36 | 290 | 8.7 | 12.2 | 0.00 | 0.01 | 0.01 | 78 | 1016.9 |
| 20260502025028 | 36 | 310 | 7.8 | 11.3 | 0.00 | 0.01 | 0.01 | 78 | 1017.0 |
| 20260502024539 | 36 | 299 | 7.8 | 11.3 | 0.00 | 0.01 | 0.01 | 77 | 1017.0 |
| 20260502024521 | 36 | 293 | 7.8 | 12.2 | 0.00 | 0.01 | 0.01 | 77 | 1015.6 |
| 20260502024017 | 36 | 301 | 7.8 | 11.3 | 0.00 | 0.01 | 0.01 | 77 | 1017.0 |
| 20260502023021 | 36 | 276 | 9.6 | 13.9 | 0.00 | 0.01 | 0.01 | 75 | 1015.8 |
| 20260502023017 | 36 | 257 | 8.7 | 13.0 | 0.00 | 0.01 | 0.01 | 75 | 1017.0 |
| 20260502022028 | 37 | 289 | 8.7 | 13.9 | 0.00 | 0.01 | 0.01 | 74 | 1017.0 |
| 20260502021517 | 37 | 290 | 8.7 | 13.0 | 0.00 | 0.01 | 0.01 | 75 | 1016.9 |
| 20260502021514 | 37 | 290 | 9.6 | 13.9 | 0.00 | 0.01 | 0.01 | 74 | 1015.9 |
| 20260502021017 | 37 | 288 | 8.7 | 13.0 | 0.00 | 0.01 | 0.01 | 75 | 1016.9 |
| 20260502020540 | 37 | 302 | 8.7 | 11.3 | 0.00 | 0.01 | 0.01 | 75 | 1016.9 |
| 20260502020003 | 37 | 287 | 7.8 | 11.3 | 0.00 | 0.01 | 0.01 | 77 | 1016.2 |
| 20260502015518 | 37 | 294 | 7.8 | 10.4 | 0.00 | 0.01 | 0.01 | 77 | 1017.0 |
| 20260502015017 | 37 | 309 | 7.0 | 10.4 | 0.00 | 0.01 | 0.01 | 77 | 1016.9 |
| 20260502014517 | 36 | 308 | 7.8 | 10.4 | 0.00 | 0.01 | 0.01 | 78 | 1016.9 |
| 20260502014505 | 36 | 286 | 7.8 | 11.3 | 0.00 | 0.01 | 0.01 | 77 | 1016.3 |
| 20260502014017 | 36 | 300 | 7.8 | 9.6 | 0.00 | 0.01 | 0.01 | 79 | 1016.9 |
| 20260502013539 | 36 | 294 | 7.8 | 9.6 | 0.00 | 0.01 | 0.01 | 78 | 1016.8 |
| 20260502013018 | 36 | 298 | 6.1 | 8.7 | 0.00 | 0.01 | 0.01 | 79 | 1016.8 |
| 20260502013003 | 36 | 292 | 6.1 | 9.6 | 0.00 | 0.01 | 0.01 | 78 | 1016.2 |
| 20260502012039 | 36 | 309 | 6.1 | 9.6 | 0.00 | 0.01 | 0.01 | 79 | 1016.7 |
| 20260502011529 | 36 | 309 | 6.1 | 7.8 | 0.00 | 0.01 | 0.01 | 78 | 1016.7 |
| 20260502011506 | 36 | 293 | 6.1 | 8.7 | 0.00 | 0.01 | 0.01 | 77 | 1015.8 |
| 20260502011018 | 37 | 311 | 6.1 | 7.8 | 0.00 | 0.01 | 0.01 | 77 | 1016.7 |
| 20260502010540 | 37 | 304 | 5.2 | 8.7 | 0.00 | 0.01 | 0.01 | 77 | 1016.7 |
| 20260502010040 | 37 | 279 | 6.1 | 8.7 | 0.00 | 0.01 | 0.01 | 75 | 1016.6 |
| 20260502010004 | 37 | 302 | 6.1 | 9.6 | 0.00 | 0.01 | 0.01 | 74 | 1015.2 |
| 20260502005517 | 37 | 285 | 6.1 | 8.7 | 0.00 | 0.01 | 0.01 | 74 | 1016.5 |
| 20260502005040 | 37 | 291 | 5.2 | 10.4 | 0.00 | 0.01 | 0.01 | 75 | 1016.5 |
| 20260502004518 | 37 | 294 | 7.8 | 10.4 | 0.00 | 0.01 | 0.01 | 74 | 1016.4 |
| 20260502004506 | 37 | 304 | 7.8 | 11.3 | 0.00 | 0.01 | 0.01 | 73 | 1015.2 |
| 20260502004040 | 37 | 291 | 7.0 | 10.4 | 0.00 | 0.01 | 0.01 | 73 | 1016.4 |
| 20260502003540 | 37 | 288 | 8.7 | 10.4 | 0.00 | 0.01 | 0.01 | 73 | 1016.4 |
| 20260502003017 | 38 | 306 | 7.8 | 10.4 | 0.00 | 0.01 | 0.01 | 73 | 1016.4 |
| 20260502003006 | 38 | 298 | 7.8 | 11.3 | 0.00 | 0.01 | 0.01 | 72 | 1015.2 |
| 20260502002540 | 38 | 295 | 7.8 | 12.2 | 0.00 | 0.01 | 0.01 | 72 | 1016.3 |
| 20260502002039 | 38 | 318 | 8.7 | 12.2 | 0.00 | 0.01 | 0.01 | 72 | 1016.3 |
| 20260502001518 | 38 | 296 | 9.6 | 12.2 | 0.00 | 0.01 | 0.01 | 71 | 1016.3 |
| 20260502001504 | 38 | 306 | 9.6 | 13.0 | 0.00 | 0.01 | 0.01 | 70 | 1015.3 |
| 20260502001040 | 38 | 281 | 9.6 | 13.0 | 0.00 | 0.01 | 0.01 | 71 | 1016.2 |
| 20260502000517 | 38 | 309 | 9.6 | 13.9 | 0.00 | 0.01 | 0.01 | 70 | 1016.2 |
| 20260502000008 | 38 | 287 | 10.4 | 14.8 | 0.00 | 0.01 | 0.01 | 69 | 1015.6 |
| 20260501235518 | 38 | 282 | 10.4 | 13.0 | 0.00 | 0.01 | 0.01 | 71 | 1016.1 |
| 20260501235041 | 38 | 314 | 7.8 | 11.3 | 0.00 | 0.01 | 0.01 | 73 | 1016.1 |
| 20260501234517 | 38 | 321 | 7.8 | 10.4 | 0.00 | 0.01 | 0.01 | 73 | 1016.0 |
| 20260501234504 | 38 | 298 | 7.8 | 11.3 | 0.00 | 0.01 | 0.01 | 73 | 1015.6 |
| 20260501234018 | 38 | 310 | 5.2 | 8.7 | 0.00 | 0.01 | 0.01 | 72 | 1016.0 |
| 20260501233018 | 38 | 310 | 7.0 | 9.6 | 0.00 | 0.01 | 0.01 | 71 | 1016.0 |
| 20260501233004 | 38 | 294 | 7.0 | 10.4 | 0.00 | 0.01 | 0.01 | 71 | 1015.4 |
| 20260501232517 | 38 | 306 | 5.2 | 8.7 | 0.00 | 0.01 | 0.01 | 75 | 1016.0 |
| 20260501232018 | 38 | 299 | 5.2 | 8.7 | 0.00 | 0.01 | 0.01 | 72 | 1016.0 |
| 20260501231518 | 38 | 319 | 5.2 | 7.8 | 0.00 | 0.01 | 0.01 | 71 | 1016.0 |
| 20260501231503 | 38 | 309 | 5.2 | 7.8 | 0.00 | 0.01 | 0.01 | 70 | 1014.7 |
| 20260501231017 | 38 | 311 | 4.3 | 6.1 | 0.00 | 0.01 | 0.01 | 70 | 1015.9 |
| 20260501230518 | 38 | 312 | 4.3 | 7.0 | 0.00 | 0.01 | 0.01 | 69 | 1015.9 |
| 20260501230006 | 38 | 315 | 3.5 | 7.8 | 0.00 | 0.01 | 0.01 | 69 | 1014.6 |
| 20260501225518 | 38 | 311 | 4.3 | 7.0 | 0.00 | 0.01 | 0.01 | 68 | 1015.9 |
| 20260501225017 | 38 | 306 | 4.3 | 6.1 | 0.00 | 0.01 | 0.01 | 68 | 1015.9 |
| 20260501224509 | 38 | 302 | 2.6 | 7.0 | 0.00 | 0.01 | 0.01 | 67 | 1014.6 |
| 20260501224018 | 38 | 310 | 4.3 | 6.1 | 0.00 | 0.01 | 0.01 | 66 | 1015.9 |
| 20260501223518 | 38 | 302 | 3.5 | 5.2 | 0.00 | 0.01 | 0.01 | 66 | 1015.8 |
| 20260501223051 | 38 | 325 | 3.5 | 6.1 | 0.00 | 0.01 | 0.01 | 64 | 1015.8 |
| 20260501223007 | 38 | 304 | 3.5 | 7.0 | 0.00 | 0.01 | 0.01 | 64 | 1014.6 |
| 20260501222540 | 39 | 303 | 3.5 | 6.1 | 0.00 | 0.01 | 0.01 | 65 | 1015.8 |
| 20260501222018 | 39 | 295 | 4.3 | 6.1 | 0.00 | 0.01 | 0.01 | 65 | 1015.7 |
| 20260501221540 | 38 | 321 | 4.3 | 6.1 | 0.00 | 0.01 | 0.01 | 66 | 1015.7 |
| 20260501221503 | 38 | 315 | 3.5 | 7.0 | 0.00 | 0.01 | 0.01 | 65 | 1014.7 |
| 20260501221018 | 38 | 304 | 5.2 | 6.1 | 0.00 | 0.01 | 0.01 | 65 | 1015.7 |
| 20260501220540 | 39 | 311 | 4.3 | 7.0 | 0.00 | 0.01 | 0.01 | 67 | 1015.7 |
| 20260501220040 | 39 | 296 | 4.3 | 7.0 | 0.00 | 0.01 | 0.01 | 67 | 1015.7 |
| 20260501220005 | 39 | 315 | 3.5 | 7.8 | 0.00 | 0.01 | 0.01 | 66 | 1014.6 |
| 20260501215528 | 39 | 329 | 3.5 | 6.1 | 0.00 | 0.02 | 0.01 | 67 | 1015.7 |
| 20260501215040 | 39 | 289 | 4.3 | 6.1 | 0.00 | 0.02 | 0.01 | 66 | 1015.6 |
| 20260501214506 | 39 | 297 | 4.3 | 7.8 | 0.00 | 0.01 | 0.01 | 67 | 1014.8 |
| 20260501214018 | 38 | 315 | 4.3 | 8.7 | 0.00 | 0.02 | 0.01 | 69 | 1015.6 |
| 20260501213518 | 38 | 303 | 6.1 | 8.7 | 0.00 | 0.02 | 0.01 | 69 | 1015.6 |
| 20260501213010 | 38 | 312 | 6.1 | 9.6 | 0.00 | 0.01 | 0.01 | 71 | 1015.3 |
| 20260501212540 | 38 | 314 | 5.2 | 7.8 | 0.00 | 0.02 | 0.01 | 74 | 1015.5 |
| 20260501212018 | 38 | 307 | 6.1 | 8.7 | 0.00 | 0.02 | 0.01 | 72 | 1015.5 |
| 20260501211518 | 38 | 317 | 7.0 | 8.7 | 0.00 | 0.02 | 0.01 | 73 | 1015.5 |
| 20260501211503 | 38 | 311 | 7.0 | 9.6 | 0.00 | 0.01 | 0.01 | 73 | 1015.2 |
| 20260501211017 | 38 | 294 | 6.1 | 9.6 | 0.00 | 0.02 | 0.01 | 75 | 1015.4 |